When you browse on this site, cookies collect data to enhance your experience and personalize the content and advertising you see.
Visit our Privacy Policy to learn more. By continuing to use the site, you agree to this use of cookies and data.
  • In Romania
  • List of Countries
  • For 7 days
  • Water Temperature
  • Satellite Maps
  • Weather Map
  • Weather Widgets
  • user-avatar
    Login

    Hourly Weather New York

    Today, 21 March, Thursday

    Time Temperature Precipitation Wind Pressure Humidity
    00:00 +7°C° 0 mm 3 mps 768 mmHg 61%
    01:00 +7°C° 0 mm 3 mps 767 mmHg 64%
    02:00 +7°C° 0 mm 3 mps 767 mmHg 66%
    03:00 +7°C° 0 mm 3 mps 766 mmHg 69%
    04:00 +6°C° 0 mm 4 mps 765 mmHg 72%
    05:00 +6°C° 0.6 mm 4 mps 765 mmHg 74%
    06:00 +6°C° 0.6 mm 4 mps 765 mmHg 76%
    07:00 +6°C° 0.6 mm 5 mps 764 mmHg 79%
    08:00 +6°C° 1.6 mm 5 mps 764 mmHg 79%
    09:00 +6°C° 1.6 mm 5 mps 764 mmHg 80%
    10:00 +7°C° 1.6 mm 5 mps 764 mmHg 81%
    11:00 +7°C° 1.1 mm 6 mps 763 mmHg 77%
    12:00 +8°C° 1.1 mm 7 mps 762 mmHg 74%
    13:00 +8°C° 1.1 mm 7 mps 761 mmHg 70%
    14:00 +8°C° 0.2 mm 7 mps 760 mmHg 71%
    15:00 +8°C° 0.2 mm 7 mps 759 mmHg 72%
    16:00 +8°C° 0.2 mm 7 mps 758 mmHg 73%
    17:00 +8°C° 0.8 mm 7 mps 757 mmHg 75%
    18:00 +8°C° 0.8 mm 7 mps 756 mmHg 77%
    19:00 +6°C° 0.8 mm 7 mps 755 mmHg 79%
    20:00 +6°C° 3.2 mm 8 mps 754 mmHg 81%
    21:00 +6°C° 3.2 mm 8 mps 753 mmHg 84%
    22:00 +6°C° 3.2 mm 9 mps 752 mmHg 86%
    23:00 +6°C° 0.6 mm 8 mps 750 mmHg 87%

    Tomorrow, 22 March, Friday

    Time Temperature Precipitation Wind Pressure Humidity
    00:00 +8°C° 0.6 mm 7 mps 749 mmHg 88%
    01:00 +8°C° 0.6 mm 6 mps 748 mmHg 89%
    02:00 +8°C° 0.3 mm 5 mps 747 mmHg 90%
    03:00 +8°C° 0.3 mm 3 mps 746 mmHg 91%
    04:00 +8°C° 0.3 mm 2 mps 745 mmHg 92%
    05:00 +8°C° 0.3 mm 3 mps 745 mmHg 89%
    06:00 +6°C° 0.3 mm 4 mps 744 mmHg 85%
    07:00 +5°C° 0.3 mm 6 mps 744 mmHg 81%
    08:00 +7°C° 0.1 mm 6 mps 745 mmHg 76%
    09:00 +6°C° 0.1 mm 7 mps 745 mmHg 72%
    10:00 +8°C° 0.1 mm 7 mps 745 mmHg 67%
    11:00 +8°C° 0 mm 7 mps 745 mmHg 60%
    12:00 +9°C° 0 mm 7 mps 745 mmHg 53%
    13:00 +9°C° 0 mm 8 mps 746 mmHg 46%
    14:00 +9°C° 0 mm 7 mps 745 mmHg 44%
    15:00 +9°C° 0 mm 7 mps 745 mmHg 42%
    16:00 +9°C° 0 mm 7 mps 745 mmHg 40%
    17:00 +8°C° 0.2 mm 7 mps 746 mmHg 43%
    18:00 +6°C° 0.2 mm 7 mps 746 mmHg 45%
    19:00 +6°C° 0.2 mm 7 mps 747 mmHg 48%
    20:00 +5°C° 0 mm 8 mps 747 mmHg 49%
    21:00 +4°C° 0 mm 8 mps 748 mmHg 50%
    22:00 +2°C° 0 mm 9 mps 748 mmHg 52%
    23:00 +1°C° 0 mm 9 mps 749 mmHg 52%

    Day after tomorrow, 23 March, Saturday

    Time Temperature Precipitation Wind Pressure Humidity
    00:00 +1°C° 0 mm 9 mps 749 mmHg 52%
    01:00 0°C° 0 mm 9 mps 749 mmHg 53%
    02:00 0°C° 0 mm 9 mps 750 mmHg 52%
    03:00 0°C° 0 mm 9 mps 750 mmHg 52%
    04:00 -1°C° 0 mm 9 mps 751 mmHg 51%
    05:00 -1°C° 0 mm 9 mps 752 mmHg 50%
    06:00 -1°C° 0 mm 9 mps 753 mmHg 50%
    07:00 -1°C° 0 mm 9 mps 753 mmHg 49%
    08:00 0°C° 0 mm 9 mps 754 mmHg 46%
    09:00 0°C° 0 mm 9 mps 755 mmHg 43%
    10:00 +1°C° 0 mm 9 mps 756 mmHg 40%
    11:00 +2°C° 0 mm 9 mps 756 mmHg 38%
    12:00 +4°C° 0 mm 8 mps 757 mmHg 35%
    13:00 +5°C° 0 mm 8 mps 757 mmHg 33%
    14:00 +6°C° 0 mm 8 mps 758 mmHg 31%
    15:00 +6°C° 0 mm 8 mps 758 mmHg 29%
    16:00 +6°C° 0 mm 8 mps 759 mmHg 27%
    17:00 +5°C° 0 mm 7 mps 760 mmHg 29%
    18:00 +4°C° 0 mm 7 mps 761 mmHg 32%
    19:00 +3°C° 0 mm 7 mps 762 mmHg 34%
    20:00 +3°C° 0 mm 7 mps 763 mmHg 36%
    21:00 +2°C° 0 mm 7 mps 763 mmHg 37%
    22:00 0°C° 0 mm 7 mps 764 mmHg 38%
    23:00 +1°C° 0 mm 6 mps 764 mmHg 38%

    24 March, Sunday

    Time Temperature Precipitation Wind Pressure Humidity
    00:00 +1°C° 0 mm 6 mps 764 mmHg 39%
    01:00 +1°C° 0 mm 5 mps 765 mmHg 40%
    02:00 +1°C° 0 mm 5 mps 765 mmHg 41%
    03:00 +1°C° 0 mm 5 mps 765 mmHg 43%
    04:00 0°C° 0 mm 4 mps 765 mmHg 44%
    05:00 0°C° 0 mm 4 mps 766 mmHg 43%
    06:00 +1°C° 0 mm 4 mps 766 mmHg 41%
    07:00 +1°C° 0 mm 4 mps 766 mmHg 40%
    08:00 +4°C° 0 mm 4 mps 766 mmHg 36%
    09:00 +5°C° 0 mm 4 mps 765 mmHg 32%
    10:00 +7°C° 0 mm 4 mps 765 mmHg 28%
    11:00 +10°C° 0 mm 4 mps 765 mmHg 26%
    12:00 +12°C° 0 mm 5 mps 764 mmHg 24%
    13:00 +14°C° 0 mm 5 mps 764 mmHg 22%
    14:00 +14°C° 0 mm 5 mps 764 mmHg 23%
    15:00 +15°C° 0 mm 5 mps 763 mmHg 24%
    16:00 +15°C° 0 mm 5 mps 763 mmHg 25%
    17:00 +14°C° 0 mm 5 mps 763 mmHg 29%
    18:00 +14°C° 0 mm 5 mps 763 mmHg 33%
    19:00 +13°C° 0 mm 4 mps 764 mmHg 37%
    20:00 +12°C° 0 mm 4 mps 764 mmHg 39%
    21:00 +11°C° 0 mm 4 mps 763 mmHg 42%
    22:00 +11°C° 0 mm 3 mps 763 mmHg 45%
    23:00 +10°C° 0 mm 3 mps 763 mmHg 47%

    25 March, Monday

    Time Temperature Precipitation Wind Pressure Humidity
    00:00 +10°C° 0 mm 3 mps 762 mmHg 49%
    01:00 +9°C° 0 mm 2 mps 762 mmHg 51%
    02:00 +9°C° 0 mm 2 mps 761 mmHg 54%
    03:00 +8°C° 0 mm 2 mps 761 mmHg 56%
    04:00 +8°C° 0 mm 2 mps 760 mmHg 59%
    05:00 +8°C° 0 mm 2 mps 760 mmHg 60%
    06:00 +8°C° 0 mm 2 mps 759 mmHg 62%
    07:00 +8°C° 0 mm 2 mps 759 mmHg 64%
    08:00 +9°C° 0 mm 3 mps 758 mmHg 62%
    09:00 +11°C° 0 mm 3 mps 757 mmHg 60%
    10:00 +12°C° 0 mm 4 mps 756 mmHg 58%
    11:00 +13°C° 0 mm 5 mps 755 mmHg 55%
    12:00 +15°C° 0 mm 6 mps 753 mmHg 52%
    13:00 +16°C° 0 mm 7 mps 752 mmHg 50%
    14:00 +17°C° 0.2 mm 8 mps 751 mmHg 51%
    15:00 +17°C° 0.2 mm 9 mps 750 mmHg 53%
    16:00 +17°C° 0.2 mm 9 mps 750 mmHg 54%
    17:00 +13°C° 0.9 mm 9 mps 751 mmHg 56%
    18:00 +11°C° 0.9 mm 9 mps 752 mmHg 57%
    19:00 +7°C° 0.9 mm 8 mps 753 mmHg 59%
    20:00 +5°C° 0.1 mm 8 mps 754 mmHg 56%
    21:00 +2°C° 0.1 mm 9 mps 756 mmHg 53%
    22:00 0°C° 0.1 mm 9 mps 757 mmHg 51%
    23:00 -1°C° 0 mm 9 mps 758 mmHg 46%

    26 March, Tuesday

    Time Temperature Precipitation Wind Pressure Humidity
    00:00 -2°C° 0 mm 8 mps 760 mmHg 41%
    01:00 -5°C° 0 mm 8 mps 761 mmHg 37%
    02:00 -5°C° 0 mm 8 mps 762 mmHg 37%
    03:00 -4°C° 0 mm 7 mps 762 mmHg 37%
    04:00 -4°C° 0 mm 7 mps 763 mmHg 37%
    05:00 -6°C° 0 mm 7 mps 764 mmHg 36%
    06:00 -6°C° 0 mm 7 mps 765 mmHg 34%
    07:00 -7°C° 0 mm 7 mps 766 mmHg 33%
    08:00 -6°C° 0 mm 7 mps 766 mmHg 30%
    09:00 -4°C° 0 mm 6 mps 767 mmHg 27%
    10:00 -4°C° 0 mm 6 mps 767 mmHg 24%
    11:00 -3°C° 0 mm 6 mps 768 mmHg 22%
    12:00 -2°C° 0 mm 6 mps 768 mmHg 20%
    13:00 -1°C° 0 mm 7 mps 768 mmHg 18%
    14:00 -1°C° 0 mm 7 mps 768 mmHg 19%
    15:00 -1°C° 0 mm 7 mps 768 mmHg 19%
    16:00 -1°C° 0 mm 7 mps 768 mmHg 20%
    17:00 -2°C° 0 mm 7 mps 770 mmHg 22%
    18:00 -3°C° 0 mm 7 mps 771 mmHg 25%
    19:00 -4°C° 0 mm 6 mps 772 mmHg 28%
    20:00 -5°C° 0 mm 6 mps 772 mmHg 30%
    21:00 -5°C° 0 mm 6 mps 773 mmHg 32%
    22:00 -6°C° 0 mm 5 mps 774 mmHg 35%
    23:00 -6°C° 0 mm 5 mps 774 mmHg 35%
    Show more